Index of /20260427/WXO-DD/model_rdps/10km/18/052
Name Last modified Size Description
Parent Directory -
20260427T18Z_MSC_RDPS_AbsoluteVorticity_IsbL-0250_RLatLon0.09_PT052H.grib2 2026-04-27 20:55 634K
20260427T18Z_MSC_RDPS_AbsoluteVorticity_IsbL-0500_RLatLon0.09_PT052H.grib2 2026-04-27 20:55 574K
20260427T18Z_MSC_RDPS_AbsoluteVorticity_IsbL-0700_RLatLon0.09_PT052H.grib2 2026-04-27 20:55 627K
20260427T18Z_MSC_RDPS_AbsoluteVorticity_IsbL-0850_RLatLon0.09_PT052H.grib2 2026-04-27 20:55 773K
20260427T18Z_MSC_RDPS_AirTemp_AGL-120m_RLatLon0.09_PT052H.grib2 2026-04-27 20:55 390K
20260427T18Z_MSC_RDPS_AirTemp_AGL-2m_RLatLon0.09_PT052H.grib2 2026-04-27 20:55 621K
20260427T18Z_MSC_RDPS_AirTemp_AGL-40m_RLatLon0.09_PT052H.grib2 2026-04-27 20:55 399K
20260427T18Z_MSC_RDPS_AirTemp_AGL-80m_RLatLon0.09_PT052H.grib2 2026-04-27 20:55 394K
20260427T18Z_MSC_RDPS_AirTemp_IsbL-0001_RLatLon0.09_PT052H.grib2 2026-04-27 20:55 277K
20260427T18Z_MSC_RDPS_AirTemp_IsbL-0005_RLatLon0.09_PT052H.grib2 2026-04-27 20:55 294K
20260427T18Z_MSC_RDPS_AirTemp_IsbL-0010_RLatLon0.09_PT052H.grib2 2026-04-27 20:55 305K
20260427T18Z_MSC_RDPS_AirTemp_IsbL-0020_RLatLon0.09_PT052H.grib2 2026-04-27 20:55 319K
20260427T18Z_MSC_RDPS_AirTemp_IsbL-0030_RLatLon0.09_PT052H.grib2 2026-04-27 20:55 341K
20260427T18Z_MSC_RDPS_AirTemp_IsbL-0050_RLatLon0.09_PT052H.grib2 2026-04-27 20:55 314K
20260427T18Z_MSC_RDPS_AirTemp_IsbL-0100_RLatLon0.09_PT052H.grib2 2026-04-27 20:55 433K
20260427T18Z_MSC_RDPS_AirTemp_IsbL-0150_RLatLon0.09_PT052H.grib2 2026-04-27 20:55 430K
20260427T18Z_MSC_RDPS_AirTemp_IsbL-0175_RLatLon0.09_PT052H.grib2 2026-04-27 20:55 419K
20260427T18Z_MSC_RDPS_AirTemp_IsbL-0200_RLatLon0.09_PT052H.grib2 2026-04-27 20:55 424K
20260427T18Z_MSC_RDPS_AirTemp_IsbL-0225_RLatLon0.09_PT052H.grib2 2026-04-27 20:55 425K
20260427T18Z_MSC_RDPS_AirTemp_IsbL-0250_RLatLon0.09_PT052H.grib2 2026-04-27 20:55 436K
20260427T18Z_MSC_RDPS_AirTemp_IsbL-0275_RLatLon0.09_PT052H.grib2 2026-04-27 20:55 414K
20260427T18Z_MSC_RDPS_AirTemp_IsbL-0300_RLatLon0.09_PT052H.grib2 2026-04-27 20:55 444K
20260427T18Z_MSC_RDPS_AirTemp_IsbL-0350_RLatLon0.09_PT052H.grib2 2026-04-27 20:55 430K
20260427T18Z_MSC_RDPS_AirTemp_IsbL-0400_RLatLon0.09_PT052H.grib2 2026-04-27 20:55 431K
20260427T18Z_MSC_RDPS_AirTemp_IsbL-0450_RLatLon0.09_PT052H.grib2 2026-04-27 20:55 402K
20260427T18Z_MSC_RDPS_AirTemp_IsbL-0500_RLatLon0.09_PT052H.grib2 2026-04-27 20:55 414K
20260427T18Z_MSC_RDPS_AirTemp_IsbL-0550_RLatLon0.09_PT052H.grib2 2026-04-27 20:55 432K
20260427T18Z_MSC_RDPS_AirTemp_IsbL-0600_RLatLon0.09_PT052H.grib2 2026-04-27 20:55 451K
20260427T18Z_MSC_RDPS_AirTemp_IsbL-0650_RLatLon0.09_PT052H.grib2 2026-04-27 20:55 466K
20260427T18Z_MSC_RDPS_AirTemp_IsbL-0700_RLatLon0.09_PT052H.grib2 2026-04-27 20:55 385K
20260427T18Z_MSC_RDPS_AirTemp_IsbL-0750_RLatLon0.09_PT052H.grib2 2026-04-27 20:55 416K
20260427T18Z_MSC_RDPS_AirTemp_IsbL-0800_RLatLon0.09_PT052H.grib2 2026-04-27 20:55 454K
20260427T18Z_MSC_RDPS_AirTemp_IsbL-0850_RLatLon0.09_PT052H.grib2 2026-04-27 20:55 499K
20260427T18Z_MSC_RDPS_AirTemp_IsbL-0875_RLatLon0.09_PT052H.grib2 2026-04-27 20:55 519K
20260427T18Z_MSC_RDPS_AirTemp_IsbL-0900_RLatLon0.09_PT052H.grib2 2026-04-27 20:55 528K
20260427T18Z_MSC_RDPS_AirTemp_IsbL-0925_RLatLon0.09_PT052H.grib2 2026-04-27 20:55 526K
20260427T18Z_MSC_RDPS_AirTemp_IsbL-0950_RLatLon0.09_PT052H.grib2 2026-04-27 20:55 526K
20260427T18Z_MSC_RDPS_AirTemp_IsbL-0970_RLatLon0.09_PT052H.grib2 2026-04-27 20:55 518K
20260427T18Z_MSC_RDPS_AirTemp_IsbL-0985_RLatLon0.09_PT052H.grib2 2026-04-27 20:55 519K
20260427T18Z_MSC_RDPS_AirTemp_IsbL-1000_RLatLon0.09_PT052H.grib2 2026-04-27 20:55 508K
20260427T18Z_MSC_RDPS_AirTemp_IsbL-1015_RLatLon0.09_PT052H.grib2 2026-04-27 20:55 505K
20260427T18Z_MSC_RDPS_Albedo_Sfc_RLatLon0.09_PT052H.grib2 2026-04-27 20:55 158K
20260427T18Z_MSC_RDPS_CAPE_Sfc_RLatLon0.09_PT052H.grib2 2026-04-27 20:55 1.7M
20260427T18Z_MSC_RDPS_CIN_Sfc_RLatLon0.09_PT052H.grib2 2026-04-27 20:55 1.2M
20260427T18Z_MSC_RDPS_CloudWater_EAtm_RLatLon0.09_PT052H.grib2 2026-04-27 20:55 223K
20260427T18Z_MSC_RDPS_ConvectivePrecip-Accum_Sfc_RLatLon0.09_PT052H.grib2 2026-04-27 20:55 1.1M
20260427T18Z_MSC_RDPS_DewPointDepression_AGL-2m_RLatLon0.09_PT052H.grib2 2026-04-27 20:55 416K
20260427T18Z_MSC_RDPS_DewPointDepression_IsbL-0001_RLatLon0.09_PT052H.grib2 2026-04-27 20:55 193
20260427T18Z_MSC_RDPS_DewPointDepression_IsbL-0005_RLatLon0.09_PT052H.grib2 2026-04-27 20:55 193
20260427T18Z_MSC_RDPS_DewPointDepression_IsbL-0010_RLatLon0.09_PT052H.grib2 2026-04-27 20:55 193
20260427T18Z_MSC_RDPS_DewPointDepression_IsbL-0020_RLatLon0.09_PT052H.grib2 2026-04-27 20:55 193
20260427T18Z_MSC_RDPS_DewPointDepression_IsbL-0030_RLatLon0.09_PT052H.grib2 2026-04-27 20:55 193
20260427T18Z_MSC_RDPS_DewPointDepression_IsbL-0050_RLatLon0.09_PT052H.grib2 2026-04-27 20:55 92K
20260427T18Z_MSC_RDPS_DewPointDepression_IsbL-0100_RLatLon0.09_PT052H.grib2 2026-04-27 20:55 131K
20260427T18Z_MSC_RDPS_DewPointDepression_IsbL-0150_RLatLon0.09_PT052H.grib2 2026-04-27 20:55 151K
20260427T18Z_MSC_RDPS_DewPointDepression_IsbL-0175_RLatLon0.09_PT052H.grib2 2026-04-27 20:55 181K
20260427T18Z_MSC_RDPS_DewPointDepression_IsbL-0200_RLatLon0.09_PT052H.grib2 2026-04-27 20:55 221K
20260427T18Z_MSC_RDPS_DewPointDepression_IsbL-0225_RLatLon0.09_PT052H.grib2 2026-04-27 20:55 269K
20260427T18Z_MSC_RDPS_DewPointDepression_IsbL-0250_RLatLon0.09_PT052H.grib2 2026-04-27 20:55 308K
20260427T18Z_MSC_RDPS_DewPointDepression_IsbL-0275_RLatLon0.09_PT052H.grib2 2026-04-27 20:55 315K
20260427T18Z_MSC_RDPS_DewPointDepression_IsbL-0300_RLatLon0.09_PT052H.grib2 2026-04-27 20:55 333K
20260427T18Z_MSC_RDPS_DewPointDepression_IsbL-0350_RLatLon0.09_PT052H.grib2 2026-04-27 20:55 334K
20260427T18Z_MSC_RDPS_DewPointDepression_IsbL-0400_RLatLon0.09_PT052H.grib2 2026-04-27 20:55 343K
20260427T18Z_MSC_RDPS_DewPointDepression_IsbL-0450_RLatLon0.09_PT052H.grib2 2026-04-27 20:55 350K
20260427T18Z_MSC_RDPS_DewPointDepression_IsbL-0500_RLatLon0.09_PT052H.grib2 2026-04-27 20:55 358K
20260427T18Z_MSC_RDPS_DewPointDepression_IsbL-0550_RLatLon0.09_PT052H.grib2 2026-04-27 20:55 370K
20260427T18Z_MSC_RDPS_DewPointDepression_IsbL-0600_RLatLon0.09_PT052H.grib2 2026-04-27 20:55 385K
20260427T18Z_MSC_RDPS_DewPointDepression_IsbL-0650_RLatLon0.09_PT052H.grib2 2026-04-27 20:55 393K
20260427T18Z_MSC_RDPS_DewPointDepression_IsbL-0700_RLatLon0.09_PT052H.grib2 2026-04-27 20:55 402K
20260427T18Z_MSC_RDPS_DewPointDepression_IsbL-0750_RLatLon0.09_PT052H.grib2 2026-04-27 20:55 423K
20260427T18Z_MSC_RDPS_DewPointDepression_IsbL-0800_RLatLon0.09_PT052H.grib2 2026-04-27 20:55 449K
20260427T18Z_MSC_RDPS_DewPointDepression_IsbL-0850_RLatLon0.09_PT052H.grib2 2026-04-27 20:55 472K
20260427T18Z_MSC_RDPS_DewPointDepression_IsbL-0875_RLatLon0.09_PT052H.grib2 2026-04-27 20:55 474K
20260427T18Z_MSC_RDPS_DewPointDepression_IsbL-0900_RLatLon0.09_PT052H.grib2 2026-04-27 20:55 467K
20260427T18Z_MSC_RDPS_DewPointDepression_IsbL-0925_RLatLon0.09_PT052H.grib2 2026-04-27 20:55 454K
20260427T18Z_MSC_RDPS_DewPointDepression_IsbL-0950_RLatLon0.09_PT052H.grib2 2026-04-27 20:55 444K
20260427T18Z_MSC_RDPS_DewPointDepression_IsbL-0970_RLatLon0.09_PT052H.grib2 2026-04-27 20:55 432K
20260427T18Z_MSC_RDPS_DewPointDepression_IsbL-0985_RLatLon0.09_PT052H.grib2 2026-04-27 20:55 426K
20260427T18Z_MSC_RDPS_DewPointDepression_IsbL-1000_RLatLon0.09_PT052H.grib2 2026-04-27 20:55 423K
20260427T18Z_MSC_RDPS_DewPointDepression_IsbL-1015_RLatLon0.09_PT052H.grib2 2026-04-27 20:55 413K
20260427T18Z_MSC_RDPS_DewPoint_AGL-2m_RLatLon0.09_PT052H.grib2 2026-04-27 20:55 395K
20260427T18Z_MSC_RDPS_DownwardLongwaveRadiationFlux-Accum_Sfc_RLatLon0.09_PT052H.grib2 2026-04-27 20:55 379K
20260427T18Z_MSC_RDPS_DownwardShortwaveRadiationFlux-Accum_NTAtm_RLatLon0.09_PT052H.grib2 2026-04-27 20:55 158K
20260427T18Z_MSC_RDPS_DownwardShortwaveRadiationFlux-Accum_Sfc_RLatLon0.09_PT052H.grib2 2026-04-27 20:55 580K
20260427T18Z_MSC_RDPS_FreezingRain-Accum1h_Sfc_RLatLon0.09_PT052H.grib2 2026-04-27 20:55 10K
20260427T18Z_MSC_RDPS_FreezingRain-Accum_Sfc_RLatLon0.09_PT052H.grib2 2026-04-27 20:55 167K
20260427T18Z_MSC_RDPS_GeopotentialHeight_IsbL-0001_RLatLon0.09_PT052H.grib2 2026-04-27 20:55 246K
20260427T18Z_MSC_RDPS_GeopotentialHeight_IsbL-0005_RLatLon0.09_PT052H.grib2 2026-04-27 20:55 313K
20260427T18Z_MSC_RDPS_GeopotentialHeight_IsbL-0010_RLatLon0.09_PT052H.grib2 2026-04-27 20:55 341K
20260427T18Z_MSC_RDPS_GeopotentialHeight_IsbL-0020_RLatLon0.09_PT052H.grib2 2026-04-27 20:55 307K
20260427T18Z_MSC_RDPS_GeopotentialHeight_IsbL-0030_RLatLon0.09_PT052H.grib2 2026-04-27 20:55 308K
20260427T18Z_MSC_RDPS_GeopotentialHeight_IsbL-0050_RLatLon0.09_PT052H.grib2 2026-04-27 20:55 343K
20260427T18Z_MSC_RDPS_GeopotentialHeight_IsbL-0100_RLatLon0.09_PT052H.grib2 2026-04-27 20:55 288K
20260427T18Z_MSC_RDPS_GeopotentialHeight_IsbL-0150_RLatLon0.09_PT052H.grib2 2026-04-27 20:55 234K
20260427T18Z_MSC_RDPS_GeopotentialHeight_IsbL-0175_RLatLon0.09_PT052H.grib2 2026-04-27 20:55 268K
20260427T18Z_MSC_RDPS_GeopotentialHeight_IsbL-0200_RLatLon0.09_PT052H.grib2 2026-04-27 20:55 269K
20260427T18Z_MSC_RDPS_GeopotentialHeight_IsbL-0225_RLatLon0.09_PT052H.grib2 2026-04-27 20:55 270K
20260427T18Z_MSC_RDPS_GeopotentialHeight_IsbL-0250_RLatLon0.09_PT052H.grib2 2026-04-27 20:55 271K
20260427T18Z_MSC_RDPS_GeopotentialHeight_IsbL-0275_RLatLon0.09_PT052H.grib2 2026-04-27 20:55 270K
20260427T18Z_MSC_RDPS_GeopotentialHeight_IsbL-0300_RLatLon0.09_PT052H.grib2 2026-04-27 20:55 239K
20260427T18Z_MSC_RDPS_GeopotentialHeight_IsbL-0350_RLatLon0.09_PT052H.grib2 2026-04-27 20:55 235K
20260427T18Z_MSC_RDPS_GeopotentialHeight_IsbL-0400_RLatLon0.09_PT052H.grib2 2026-04-27 20:55 231K
20260427T18Z_MSC_RDPS_GeopotentialHeight_IsbL-0450_RLatLon0.09_PT052H.grib2 2026-04-27 20:55 299K
20260427T18Z_MSC_RDPS_GeopotentialHeight_IsbL-0500_RLatLon0.09_PT052H.grib2 2026-04-27 20:55 294K
20260427T18Z_MSC_RDPS_GeopotentialHeight_IsbL-0550_RLatLon0.09_PT052H.grib2 2026-04-27 20:55 291K
20260427T18Z_MSC_RDPS_GeopotentialHeight_IsbL-0600_RLatLon0.09_PT052H.grib2 2026-04-27 20:55 287K
20260427T18Z_MSC_RDPS_GeopotentialHeight_IsbL-0650_RLatLon0.09_PT052H.grib2 2026-04-27 20:55 258K
20260427T18Z_MSC_RDPS_GeopotentialHeight_IsbL-0700_RLatLon0.09_PT052H.grib2 2026-04-27 20:55 338K
20260427T18Z_MSC_RDPS_GeopotentialHeight_IsbL-0750_RLatLon0.09_PT052H.grib2 2026-04-27 20:55 340K
20260427T18Z_MSC_RDPS_GeopotentialHeight_IsbL-0800_RLatLon0.09_PT052H.grib2 2026-04-27 20:55 346K
20260427T18Z_MSC_RDPS_GeopotentialHeight_IsbL-0850_RLatLon0.09_PT052H.grib2 2026-04-27 20:55 355K
20260427T18Z_MSC_RDPS_GeopotentialHeight_IsbL-0875_RLatLon0.09_PT052H.grib2 2026-04-27 20:55 358K
20260427T18Z_MSC_RDPS_GeopotentialHeight_IsbL-0900_RLatLon0.09_PT052H.grib2 2026-04-27 20:55 395K
20260427T18Z_MSC_RDPS_GeopotentialHeight_IsbL-0925_RLatLon0.09_PT052H.grib2 2026-04-27 20:55 399K
20260427T18Z_MSC_RDPS_GeopotentialHeight_IsbL-0950_RLatLon0.09_PT052H.grib2 2026-04-27 20:55 403K
20260427T18Z_MSC_RDPS_GeopotentialHeight_IsbL-0970_RLatLon0.09_PT052H.grib2 2026-04-27 20:55 409K
20260427T18Z_MSC_RDPS_GeopotentialHeight_IsbL-0985_RLatLon0.09_PT052H.grib2 2026-04-27 20:55 419K
20260427T18Z_MSC_RDPS_GeopotentialHeight_IsbL-1000_RLatLon0.09_PT052H.grib2 2026-04-27 20:55 431K
20260427T18Z_MSC_RDPS_GeopotentialHeight_IsbL-1015_RLatLon0.09_PT052H.grib2 2026-04-27 20:55 447K
20260427T18Z_MSC_RDPS_Humidex_Sfc_RLatLon0.09_PT052H.grib2 2026-04-27 20:55 2.4M
20260427T18Z_MSC_RDPS_IcePellets-Accum1h_Sfc_RLatLon0.09_PT052H.grib2 2026-04-27 20:55 1.7K
20260427T18Z_MSC_RDPS_IcePellets-Accum_Sfc_RLatLon0.09_PT052H.grib2 2026-04-27 20:55 31K
20260427T18Z_MSC_RDPS_KIndex_Sfc_RLatLon0.09_PT052H.grib2 2026-04-27 20:55 2.5M
20260427T18Z_MSC_RDPS_LatentHeatNetFlux_Sfc_RLatLon0.09_PT052H.grib2 2026-04-27 20:55 375K
20260427T18Z_MSC_RDPS_LiftedIndex-MU-VT_IsbL-0500_RLatLon0.09_PT052H.grib2 2026-04-27 20:55 2.4M
20260427T18Z_MSC_RDPS_NetLongwaveRadiationFlux-Accum_Sfc_RLatLon0.09_PT052H.grib2 2026-04-27 20:55 554K
20260427T18Z_MSC_RDPS_NetShortwaveRadiationFlux-Accum_Sfc_RLatLon0.09_PT052H.grib2 2026-04-27 20:55 579K
20260427T18Z_MSC_RDPS_PlanetaryBoundaryLayerHeight_Sfc_RLatLon0.09_PT052H.grib2 2026-04-27 20:55 1.0M
20260427T18Z_MSC_RDPS_Precip-Accum1h_Sfc_RLatLon0.09_PT052H.grib2 2026-04-27 20:55 1.2M
20260427T18Z_MSC_RDPS_Precip-Accum_Sfc_RLatLon0.09_PT052H.grib2 2026-04-27 20:55 1.9M
20260427T18Z_MSC_RDPS_PrecipRate_Sfc_RLatLon0.09_PT052H.grib2 2026-04-27 20:55 164K
20260427T18Z_MSC_RDPS_PrecipType-Instant_Sfc_RLatLon0.09_PT052H.grib2 2026-04-27 20:55 565K
20260427T18Z_MSC_RDPS_Pressure-Trend3h_Sfc_RLatLon0.09_PT052H.grib2 2026-04-27 20:55 1.2M
20260427T18Z_MSC_RDPS_Pressure_MSL_RLatLon0.09_PT052H.grib2 2026-04-27 20:55 330K
20260427T18Z_MSC_RDPS_Pressure_PVU-1.5_RLatLon0.09_PT052H.grib2 2026-04-27 20:55 2.3M
20260427T18Z_MSC_RDPS_Pressure_PVU-1_RLatLon0.09_PT052H.grib2 2026-04-27 20:55 2.4M
20260427T18Z_MSC_RDPS_Pressure_PVU-2_RLatLon0.09_PT052H.grib2 2026-04-27 20:55 2.4M
20260427T18Z_MSC_RDPS_Pressure_Sfc_RLatLon0.09_PT052H.grib2 2026-04-27 20:55 500K
20260427T18Z_MSC_RDPS_RadiativeTemp_Sfc_RLatLon0.09_PT052H.grib2 2026-04-27 20:55 320K
20260427T18Z_MSC_RDPS_Rain-Accum1h_Sfc_RLatLon0.09_PT052H.grib2 2026-04-27 20:55 526K
20260427T18Z_MSC_RDPS_Rain-Accum_Sfc_RLatLon0.09_PT052H.grib2 2026-04-27 20:55 1.5M
20260427T18Z_MSC_RDPS_RelativeHumidity_AGL-2m_RLatLon0.09_PT052H.grib2 2026-04-27 20:55 1.0M
20260427T18Z_MSC_RDPS_RelativeHumidity_IsbL-0010_RLatLon0.09_PT052H.grib2 2026-04-27 20:55 621K
20260427T18Z_MSC_RDPS_RelativeHumidity_IsbL-0020_RLatLon0.09_PT052H.grib2 2026-04-27 20:55 642K
20260427T18Z_MSC_RDPS_RelativeHumidity_IsbL-0030_RLatLon0.09_PT052H.grib2 2026-04-27 20:55 605K
20260427T18Z_MSC_RDPS_RelativeHumidity_IsbL-0050_RLatLon0.09_PT052H.grib2 2026-04-27 20:55 270K
20260427T18Z_MSC_RDPS_RelativeHumidity_IsbL-0100_RLatLon0.09_PT052H.grib2 2026-04-27 20:55 287K
20260427T18Z_MSC_RDPS_RelativeHumidity_IsbL-0150_RLatLon0.09_PT052H.grib2 2026-04-27 20:55 419K
20260427T18Z_MSC_RDPS_RelativeHumidity_IsbL-0175_RLatLon0.09_PT052H.grib2 2026-04-27 20:55 489K
20260427T18Z_MSC_RDPS_RelativeHumidity_IsbL-0200_RLatLon0.09_PT052H.grib2 2026-04-27 20:55 563K
20260427T18Z_MSC_RDPS_RelativeHumidity_IsbL-0225_RLatLon0.09_PT052H.grib2 2026-04-27 20:55 634K
20260427T18Z_MSC_RDPS_RelativeHumidity_IsbL-0250_RLatLon0.09_PT052H.grib2 2026-04-27 20:55 708K
20260427T18Z_MSC_RDPS_RelativeHumidity_IsbL-0275_RLatLon0.09_PT052H.grib2 2026-04-27 20:55 737K
20260427T18Z_MSC_RDPS_RelativeHumidity_IsbL-0300_RLatLon0.09_PT052H.grib2 2026-04-27 20:55 779K
20260427T18Z_MSC_RDPS_RelativeHumidity_IsbL-0350_RLatLon0.09_PT052H.grib2 2026-04-27 20:55 790K
20260427T18Z_MSC_RDPS_RelativeHumidity_IsbL-0400_RLatLon0.09_PT052H.grib2 2026-04-27 20:55 802K
20260427T18Z_MSC_RDPS_RelativeHumidity_IsbL-0450_RLatLon0.09_PT052H.grib2 2026-04-27 20:55 804K
20260427T18Z_MSC_RDPS_RelativeHumidity_IsbL-0500_RLatLon0.09_PT052H.grib2 2026-04-27 20:55 810K
20260427T18Z_MSC_RDPS_RelativeHumidity_IsbL-0550_RLatLon0.09_PT052H.grib2 2026-04-27 20:55 838K
20260427T18Z_MSC_RDPS_RelativeHumidity_IsbL-0600_RLatLon0.09_PT052H.grib2 2026-04-27 20:55 852K
20260427T18Z_MSC_RDPS_RelativeHumidity_IsbL-0650_RLatLon0.09_PT052H.grib2 2026-04-27 20:55 866K
20260427T18Z_MSC_RDPS_RelativeHumidity_IsbL-0700_RLatLon0.09_PT052H.grib2 2026-04-27 20:55 888K
20260427T18Z_MSC_RDPS_RelativeHumidity_IsbL-0750_RLatLon0.09_PT052H.grib2 2026-04-27 20:55 929K
20260427T18Z_MSC_RDPS_RelativeHumidity_IsbL-0800_RLatLon0.09_PT052H.grib2 2026-04-27 20:55 1.0M
20260427T18Z_MSC_RDPS_RelativeHumidity_IsbL-0850_RLatLon0.09_PT052H.grib2 2026-04-27 20:55 1.0M
20260427T18Z_MSC_RDPS_RelativeHumidity_IsbL-0875_RLatLon0.09_PT052H.grib2 2026-04-27 20:55 1.0M
20260427T18Z_MSC_RDPS_RelativeHumidity_IsbL-0900_RLatLon0.09_PT052H.grib2 2026-04-27 20:55 1.1M
20260427T18Z_MSC_RDPS_RelativeHumidity_IsbL-0925_RLatLon0.09_PT052H.grib2 2026-04-27 20:55 1.1M
20260427T18Z_MSC_RDPS_RelativeHumidity_IsbL-0950_RLatLon0.09_PT052H.grib2 2026-04-27 20:55 1.1M
20260427T18Z_MSC_RDPS_RelativeHumidity_IsbL-0970_RLatLon0.09_PT052H.grib2 2026-04-27 20:55 1.0M
20260427T18Z_MSC_RDPS_RelativeHumidity_IsbL-0985_RLatLon0.09_PT052H.grib2 2026-04-27 20:55 1.0M
20260427T18Z_MSC_RDPS_RelativeHumidity_IsbL-1000_RLatLon0.09_PT052H.grib2 2026-04-27 20:55 1.0M
20260427T18Z_MSC_RDPS_RelativeHumidity_IsbL-1015_RLatLon0.09_PT052H.grib2 2026-04-27 20:55 1.0M
20260427T18Z_MSC_RDPS_Runoff-Accum_Sfc_RLatLon0.09_PT052H.grib2 2026-04-27 20:55 72K
20260427T18Z_MSC_RDPS_SWEATIndex_Sfc_RLatLon0.09_PT052H.grib2 2026-04-27 20:55 2.4M
20260427T18Z_MSC_RDPS_SeeingIndex_EAtm_RLatLon0.09_PT052H.grib2 2026-04-27 20:55 1.0M
20260427T18Z_MSC_RDPS_SensibleHeatNetFlux_Sfc_RLatLon0.09_PT052H.grib2 2026-04-27 20:55 345K
20260427T18Z_MSC_RDPS_ShowalterIndex_IsbL-0500_RLatLon0.09_PT052H.grib2 2026-04-27 20:55 2.6M
20260427T18Z_MSC_RDPS_SkyTransparencyIndex_EAtm_RLatLon0.09_PT052H.grib2 2026-04-27 20:55 686K
20260427T18Z_MSC_RDPS_Snow-Accum1h_Sfc_RLatLon0.09_PT052H.grib2 2026-04-27 20:55 393K
20260427T18Z_MSC_RDPS_Snow-Accum_Sfc_RLatLon0.09_PT052H.grib2 2026-04-27 20:55 779K
20260427T18Z_MSC_RDPS_SnowDensity_Sfc_RLatLon0.09_PT052H.grib2 2026-04-27 20:55 184K
20260427T18Z_MSC_RDPS_SnowDepth_Sfc_RLatLon0.09_PT052H.grib2 2026-04-27 20:55 694K
20260427T18Z_MSC_RDPS_SoilTemp_DBS-0to10cm_RLatLon0.09_PT052H.grib2 2026-04-27 20:55 241K
20260427T18Z_MSC_RDPS_SoilTemp_Sfc_RLatLon0.09_PT052H.grib2 2026-04-27 20:55 290K
20260427T18Z_MSC_RDPS_SoilVolumetricIceContent_Sfc_RLatLon0.09_PT052H.grib2 2026-04-27 20:55 165K
20260427T18Z_MSC_RDPS_SoilVolumetricWaterContent_DBS-0to10cm_RLatLon0.09_PT052H.grib2 2026-04-27 20:55 266K
20260427T18Z_MSC_RDPS_SoilVolumetricWaterContent_DBS-0to1cm_RLatLon0.09_PT052H.grib2 2026-04-27 20:55 336K
20260427T18Z_MSC_RDPS_SpecificHumidity_AGL-120m_RLatLon0.09_PT052H.grib2 2026-04-27 20:55 492K
20260427T18Z_MSC_RDPS_SpecificHumidity_AGL-2m_RLatLon0.09_PT052H.grib2 2026-04-27 20:55 658K
20260427T18Z_MSC_RDPS_SpecificHumidity_AGL-40m_RLatLon0.09_PT052H.grib2 2026-04-27 20:55 496K
20260427T18Z_MSC_RDPS_SpecificHumidity_AGL-80m_RLatLon0.09_PT052H.grib2 2026-04-27 20:55 493K
20260427T18Z_MSC_RDPS_SpecificHumidity_IsbL-0001_RLatLon0.09_PT052H.grib2 2026-04-27 20:55 358K
20260427T18Z_MSC_RDPS_SpecificHumidity_IsbL-0005_RLatLon0.09_PT052H.grib2 2026-04-27 20:55 357K
20260427T18Z_MSC_RDPS_SpecificHumidity_IsbL-0010_RLatLon0.09_PT052H.grib2 2026-04-27 20:55 395K
20260427T18Z_MSC_RDPS_SpecificHumidity_IsbL-0020_RLatLon0.09_PT052H.grib2 2026-04-27 20:55 384K
20260427T18Z_MSC_RDPS_SpecificHumidity_IsbL-0030_RLatLon0.09_PT052H.grib2 2026-04-27 20:55 477K
20260427T18Z_MSC_RDPS_SpecificHumidity_IsbL-0050_RLatLon0.09_PT052H.grib2 2026-04-27 20:55 455K
20260427T18Z_MSC_RDPS_SpecificHumidity_IsbL-0100_RLatLon0.09_PT052H.grib2 2026-04-27 20:55 385K
20260427T18Z_MSC_RDPS_SpecificHumidity_IsbL-0150_RLatLon0.09_PT052H.grib2 2026-04-27 20:55 488K
20260427T18Z_MSC_RDPS_SpecificHumidity_IsbL-0175_RLatLon0.09_PT052H.grib2 2026-04-27 20:55 445K
20260427T18Z_MSC_RDPS_SpecificHumidity_IsbL-0200_RLatLon0.09_PT052H.grib2 2026-04-27 20:55 479K
20260427T18Z_MSC_RDPS_SpecificHumidity_IsbL-0225_RLatLon0.09_PT052H.grib2 2026-04-27 20:55 483K
20260427T18Z_MSC_RDPS_SpecificHumidity_IsbL-0250_RLatLon0.09_PT052H.grib2 2026-04-27 20:55 529K
20260427T18Z_MSC_RDPS_SpecificHumidity_IsbL-0275_RLatLon0.09_PT052H.grib2 2026-04-27 20:55 487K
20260427T18Z_MSC_RDPS_SpecificHumidity_IsbL-0300_RLatLon0.09_PT052H.grib2 2026-04-27 20:55 460K
20260427T18Z_MSC_RDPS_SpecificHumidity_IsbL-0350_RLatLon0.09_PT052H.grib2 2026-04-27 20:55 446K
20260427T18Z_MSC_RDPS_SpecificHumidity_IsbL-0400_RLatLon0.09_PT052H.grib2 2026-04-27 20:55 526K
20260427T18Z_MSC_RDPS_SpecificHumidity_IsbL-0450_RLatLon0.09_PT052H.grib2 2026-04-27 20:55 576K
20260427T18Z_MSC_RDPS_SpecificHumidity_IsbL-0500_RLatLon0.09_PT052H.grib2 2026-04-27 20:55 512K
20260427T18Z_MSC_RDPS_SpecificHumidity_IsbL-0550_RLatLon0.09_PT052H.grib2 2026-04-27 20:55 587K
20260427T18Z_MSC_RDPS_SpecificHumidity_IsbL-0600_RLatLon0.09_PT052H.grib2 2026-04-27 20:55 646K
20260427T18Z_MSC_RDPS_SpecificHumidity_IsbL-0650_RLatLon0.09_PT052H.grib2 2026-04-27 20:55 566K
20260427T18Z_MSC_RDPS_SpecificHumidity_IsbL-0700_RLatLon0.09_PT052H.grib2 2026-04-27 20:55 609K
20260427T18Z_MSC_RDPS_SpecificHumidity_IsbL-0750_RLatLon0.09_PT052H.grib2 2026-04-27 20:55 663K
20260427T18Z_MSC_RDPS_SpecificHumidity_IsbL-0800_RLatLon0.09_PT052H.grib2 2026-04-27 20:55 737K
20260427T18Z_MSC_RDPS_SpecificHumidity_IsbL-0850_RLatLon0.09_PT052H.grib2 2026-04-27 20:55 806K
20260427T18Z_MSC_RDPS_SpecificHumidity_IsbL-0875_RLatLon0.09_PT052H.grib2 2026-04-27 20:55 832K
20260427T18Z_MSC_RDPS_SpecificHumidity_IsbL-0900_RLatLon0.09_PT052H.grib2 2026-04-27 20:55 707K
20260427T18Z_MSC_RDPS_SpecificHumidity_IsbL-0925_RLatLon0.09_PT052H.grib2 2026-04-27 20:55 709K
20260427T18Z_MSC_RDPS_SpecificHumidity_IsbL-0950_RLatLon0.09_PT052H.grib2 2026-04-27 20:55 708K
20260427T18Z_MSC_RDPS_SpecificHumidity_IsbL-0970_RLatLon0.09_PT052H.grib2 2026-04-27 20:55 695K
20260427T18Z_MSC_RDPS_SpecificHumidity_IsbL-0985_RLatLon0.09_PT052H.grib2 2026-04-27 20:55 686K
20260427T18Z_MSC_RDPS_SpecificHumidity_IsbL-1000_RLatLon0.09_PT052H.grib2 2026-04-27 20:55 680K
20260427T18Z_MSC_RDPS_SpecificHumidity_IsbL-1015_RLatLon0.09_PT052H.grib2 2026-04-27 20:55 669K
20260427T18Z_MSC_RDPS_SpecificHumidity_Sfc_RLatLon0.09_PT052H.grib2 2026-04-27 20:55 337K
20260427T18Z_MSC_RDPS_StormRelativeHelicity_EtaL-10000_RLatLon0.09_PT052H.grib2 2026-04-27 20:55 1.1M
20260427T18Z_MSC_RDPS_StormSeverityIndex_EtaL-10000_RLatLon0.09_PT052H.grib2 2026-04-27 20:55 1.1M
20260427T18Z_MSC_RDPS_Thickness_IsbL-0850to0700_RLatLon0.09_PT052H.grib2 2026-04-27 20:55 179K
20260427T18Z_MSC_RDPS_Thickness_IsbL-1000to0500_RLatLon0.09_PT052H.grib2 2026-04-27 20:55 139K
20260427T18Z_MSC_RDPS_Thickness_IsbL-1000to0850_RLatLon0.09_PT052H.grib2 2026-04-27 20:55 188K
20260427T18Z_MSC_RDPS_TotalCloudCover_Sfc_RLatLon0.09_PT052H.grib2 2026-04-27 20:55 643K
20260427T18Z_MSC_RDPS_TotalTotalsIndex_Sfc_RLatLon0.09_PT052H.grib2 2026-04-27 20:55 2.4M
20260427T18Z_MSC_RDPS_UVIndex-ClearSky_Sfc_RLatLon0.09_PT052H.grib2 2026-04-27 20:55 175K
20260427T18Z_MSC_RDPS_UVIndex_Sfc_RLatLon0.09_PT052H.grib2 2026-04-27 20:55 408K
20260427T18Z_MSC_RDPS_UpwardLongwaveRadiationFlux_NTAtm_RLatLon0.09_PT052H.grib2 2026-04-27 20:55 391K
20260427T18Z_MSC_RDPS_UpwardShortwaveRadiationFlux_NTAtm_RLatLon0.09_PT052H.grib2 2026-04-27 20:55 450K
20260427T18Z_MSC_RDPS_VerticalVelocity_IsbL-0250_RLatLon0.09_PT052H.grib2 2026-04-27 20:55 440K
20260427T18Z_MSC_RDPS_VerticalVelocity_IsbL-0500_RLatLon0.09_PT052H.grib2 2026-04-27 20:55 548K
20260427T18Z_MSC_RDPS_VerticalVelocity_IsbL-0700_RLatLon0.09_PT052H.grib2 2026-04-27 20:55 602K
20260427T18Z_MSC_RDPS_VerticalVelocity_IsbL-0850_RLatLon0.09_PT052H.grib2 2026-04-27 20:55 694K
20260427T18Z_MSC_RDPS_VerticalWindShear_EtaL-6500_RLatLon0.09_PT052H.grib2 2026-04-27 20:55 1.2M
20260427T18Z_MSC_RDPS_WindChill_Sfc_RLatLon0.09_PT052H.grib2 2026-04-27 20:55 1.1M
20260427T18Z_MSC_RDPS_WindDir_AGL-10m_RLatLon0.09_PT052H.grib2 2026-04-27 20:55 956K
20260427T18Z_MSC_RDPS_WindDir_AGL-120m_RLatLon0.09_PT052H.grib2 2026-04-27 20:55 607K
20260427T18Z_MSC_RDPS_WindDir_AGL-40m_RLatLon0.09_PT052H.grib2 2026-04-27 20:55 626K
20260427T18Z_MSC_RDPS_WindDir_AGL-80m_RLatLon0.09_PT052H.grib2 2026-04-27 20:55 615K
20260427T18Z_MSC_RDPS_WindDir_IsbL-0001_RLatLon0.09_PT052H.grib2 2026-04-27 20:55 306K
20260427T18Z_MSC_RDPS_WindDir_IsbL-0005_RLatLon0.09_PT052H.grib2 2026-04-27 20:55 350K
20260427T18Z_MSC_RDPS_WindDir_IsbL-0010_RLatLon0.09_PT052H.grib2 2026-04-27 20:55 379K
20260427T18Z_MSC_RDPS_WindDir_IsbL-0020_RLatLon0.09_PT052H.grib2 2026-04-27 20:55 407K
20260427T18Z_MSC_RDPS_WindDir_IsbL-0030_RLatLon0.09_PT052H.grib2 2026-04-27 20:55 408K
20260427T18Z_MSC_RDPS_WindDir_IsbL-0050_RLatLon0.09_PT052H.grib2 2026-04-27 20:55 431K
20260427T18Z_MSC_RDPS_WindDir_IsbL-0100_RLatLon0.09_PT052H.grib2 2026-04-27 20:55 435K
20260427T18Z_MSC_RDPS_WindDir_IsbL-0150_RLatLon0.09_PT052H.grib2 2026-04-27 20:55 425K
20260427T18Z_MSC_RDPS_WindDir_IsbL-0175_RLatLon0.09_PT052H.grib2 2026-04-27 20:55 443K
20260427T18Z_MSC_RDPS_WindDir_IsbL-0200_RLatLon0.09_PT052H.grib2 2026-04-27 20:55 452K
20260427T18Z_MSC_RDPS_WindDir_IsbL-0225_RLatLon0.09_PT052H.grib2 2026-04-27 20:55 455K
20260427T18Z_MSC_RDPS_WindDir_IsbL-0250_RLatLon0.09_PT052H.grib2 2026-04-27 20:55 461K
20260427T18Z_MSC_RDPS_WindDir_IsbL-0275_RLatLon0.09_PT052H.grib2 2026-04-27 20:55 482K
20260427T18Z_MSC_RDPS_WindDir_IsbL-0300_RLatLon0.09_PT052H.grib2 2026-04-27 20:55 479K
20260427T18Z_MSC_RDPS_WindDir_IsbL-0350_RLatLon0.09_PT052H.grib2 2026-04-27 20:55 499K
20260427T18Z_MSC_RDPS_WindDir_IsbL-0400_RLatLon0.09_PT052H.grib2 2026-04-27 20:55 516K
20260427T18Z_MSC_RDPS_WindDir_IsbL-0450_RLatLon0.09_PT052H.grib2 2026-04-27 20:55 529K
20260427T18Z_MSC_RDPS_WindDir_IsbL-0500_RLatLon0.09_PT052H.grib2 2026-04-27 20:55 546K
20260427T18Z_MSC_RDPS_WindDir_IsbL-0550_RLatLon0.09_PT052H.grib2 2026-04-27 20:55 571K
20260427T18Z_MSC_RDPS_WindDir_IsbL-0600_RLatLon0.09_PT052H.grib2 2026-04-27 20:55 598K
20260427T18Z_MSC_RDPS_WindDir_IsbL-0650_RLatLon0.09_PT052H.grib2 2026-04-27 20:55 637K
20260427T18Z_MSC_RDPS_WindDir_IsbL-0700_RLatLon0.09_PT052H.grib2 2026-04-27 20:55 684K
20260427T18Z_MSC_RDPS_WindDir_IsbL-0750_RLatLon0.09_PT052H.grib2 2026-04-27 20:55 733K
20260427T18Z_MSC_RDPS_WindDir_IsbL-0800_RLatLon0.09_PT052H.grib2 2026-04-27 20:55 794K
20260427T18Z_MSC_RDPS_WindDir_IsbL-0850_RLatLon0.09_PT052H.grib2 2026-04-27 20:55 863K
20260427T18Z_MSC_RDPS_WindDir_IsbL-0875_RLatLon0.09_PT052H.grib2 2026-04-27 20:55 887K
20260427T18Z_MSC_RDPS_WindDir_IsbL-0900_RLatLon0.09_PT052H.grib2 2026-04-27 20:55 903K
20260427T18Z_MSC_RDPS_WindDir_IsbL-0925_RLatLon0.09_PT052H.grib2 2026-04-27 20:55 912K
20260427T18Z_MSC_RDPS_WindDir_IsbL-0950_RLatLon0.09_PT052H.grib2 2026-04-27 20:55 909K
20260427T18Z_MSC_RDPS_WindDir_IsbL-0970_RLatLon0.09_PT052H.grib2 2026-04-27 20:55 916K
20260427T18Z_MSC_RDPS_WindDir_IsbL-0985_RLatLon0.09_PT052H.grib2 2026-04-27 20:55 924K
20260427T18Z_MSC_RDPS_WindDir_IsbL-1000_RLatLon0.09_PT052H.grib2 2026-04-27 20:55 934K
20260427T18Z_MSC_RDPS_WindDir_IsbL-1015_RLatLon0.09_PT052H.grib2 2026-04-27 20:55 948K
20260427T18Z_MSC_RDPS_WindGust-Max_AGL-10m_RLatLon0.09_PT052H.grib2 2026-04-27 20:55 1.0M
20260427T18Z_MSC_RDPS_WindGust-Min_AGL-10m_RLatLon0.09_PT052H.grib2 2026-04-27 20:55 970K
20260427T18Z_MSC_RDPS_WindGust_AGL-10m_RLatLon0.09_PT052H.grib2 2026-04-27 20:55 1.0M
20260427T18Z_MSC_RDPS_WindSpeed_AGL-10m_RLatLon0.09_PT052H.grib2 2026-04-27 20:55 833K
20260427T18Z_MSC_RDPS_WindSpeed_AGL-120m_RLatLon0.09_PT052H.grib2 2026-04-27 20:55 541K
20260427T18Z_MSC_RDPS_WindSpeed_AGL-40m_RLatLon0.09_PT052H.grib2 2026-04-27 20:55 532K
20260427T18Z_MSC_RDPS_WindSpeed_AGL-80m_RLatLon0.09_PT052H.grib2 2026-04-27 20:55 530K
20260427T18Z_MSC_RDPS_WindSpeed_IsbL-0001_RLatLon0.09_PT052H.grib2 2026-04-27 20:55 255K
20260427T18Z_MSC_RDPS_WindSpeed_IsbL-0005_RLatLon0.09_PT052H.grib2 2026-04-27 20:55 296K
20260427T18Z_MSC_RDPS_WindSpeed_IsbL-0010_RLatLon0.09_PT052H.grib2 2026-04-27 20:55 309K
20260427T18Z_MSC_RDPS_WindSpeed_IsbL-0020_RLatLon0.09_PT052H.grib2 2026-04-27 20:55 325K
20260427T18Z_MSC_RDPS_WindSpeed_IsbL-0030_RLatLon0.09_PT052H.grib2 2026-04-27 20:55 324K
20260427T18Z_MSC_RDPS_WindSpeed_IsbL-0050_RLatLon0.09_PT052H.grib2 2026-04-27 20:55 352K
20260427T18Z_MSC_RDPS_WindSpeed_IsbL-0100_RLatLon0.09_PT052H.grib2 2026-04-27 20:55 486K
20260427T18Z_MSC_RDPS_WindSpeed_IsbL-0150_RLatLon0.09_PT052H.grib2 2026-04-27 20:55 389K
20260427T18Z_MSC_RDPS_WindSpeed_IsbL-0175_RLatLon0.09_PT052H.grib2 2026-04-27 20:55 437K
20260427T18Z_MSC_RDPS_WindSpeed_IsbL-0200_RLatLon0.09_PT052H.grib2 2026-04-27 20:55 455K
20260427T18Z_MSC_RDPS_WindSpeed_IsbL-0225_RLatLon0.09_PT052H.grib2 2026-04-27 20:55 461K
20260427T18Z_MSC_RDPS_WindSpeed_IsbL-0250_RLatLon0.09_PT052H.grib2 2026-04-27 20:55 465K
20260427T18Z_MSC_RDPS_WindSpeed_IsbL-0275_RLatLon0.09_PT052H.grib2 2026-04-27 20:55 483K
20260427T18Z_MSC_RDPS_WindSpeed_IsbL-0300_RLatLon0.09_PT052H.grib2 2026-04-27 20:55 478K
20260427T18Z_MSC_RDPS_WindSpeed_IsbL-0350_RLatLon0.09_PT052H.grib2 2026-04-27 20:55 488K
20260427T18Z_MSC_RDPS_WindSpeed_IsbL-0400_RLatLon0.09_PT052H.grib2 2026-04-27 20:55 469K
20260427T18Z_MSC_RDPS_WindSpeed_IsbL-0450_RLatLon0.09_PT052H.grib2 2026-04-27 20:55 467K
20260427T18Z_MSC_RDPS_WindSpeed_IsbL-0500_RLatLon0.09_PT052H.grib2 2026-04-27 20:55 589K
20260427T18Z_MSC_RDPS_WindSpeed_IsbL-0550_RLatLon0.09_PT052H.grib2 2026-04-27 20:55 591K
20260427T18Z_MSC_RDPS_WindSpeed_IsbL-0600_RLatLon0.09_PT052H.grib2 2026-04-27 20:55 601K
20260427T18Z_MSC_RDPS_WindSpeed_IsbL-0650_RLatLon0.09_PT052H.grib2 2026-04-27 20:55 620K
20260427T18Z_MSC_RDPS_WindSpeed_IsbL-0700_RLatLon0.09_PT052H.grib2 2026-04-27 20:55 686K
20260427T18Z_MSC_RDPS_WindSpeed_IsbL-0750_RLatLon0.09_PT052H.grib2 2026-04-27 20:55 716K
20260427T18Z_MSC_RDPS_WindSpeed_IsbL-0800_RLatLon0.09_PT052H.grib2 2026-04-27 20:55 756K
20260427T18Z_MSC_RDPS_WindSpeed_IsbL-0850_RLatLon0.09_PT052H.grib2 2026-04-27 20:55 808K
20260427T18Z_MSC_RDPS_WindSpeed_IsbL-0875_RLatLon0.09_PT052H.grib2 2026-04-27 20:55 827K
20260427T18Z_MSC_RDPS_WindSpeed_IsbL-0900_RLatLon0.09_PT052H.grib2 2026-04-27 20:55 842K
20260427T18Z_MSC_RDPS_WindSpeed_IsbL-0925_RLatLon0.09_PT052H.grib2 2026-04-27 20:55 853K
20260427T18Z_MSC_RDPS_WindSpeed_IsbL-0950_RLatLon0.09_PT052H.grib2 2026-04-27 20:55 852K
20260427T18Z_MSC_RDPS_WindSpeed_IsbL-0970_RLatLon0.09_PT052H.grib2 2026-04-27 20:55 851K
20260427T18Z_MSC_RDPS_WindSpeed_IsbL-0985_RLatLon0.09_PT052H.grib2 2026-04-27 20:55 848K
20260427T18Z_MSC_RDPS_WindSpeed_IsbL-1000_RLatLon0.09_PT052H.grib2 2026-04-27 20:55 843K
20260427T18Z_MSC_RDPS_WindSpeed_IsbL-1015_RLatLon0.09_PT052H.grib2 2026-04-27 20:55 834K
20260427T18Z_MSC_RDPS_WindU_AGL-10m_RLatLon0.09_PT052H.grib2 2026-04-27 20:55 429K
20260427T18Z_MSC_RDPS_WindU_AGL-120m_RLatLon0.09_PT052H.grib2 2026-04-27 20:55 413K
20260427T18Z_MSC_RDPS_WindU_AGL-40m_RLatLon0.09_PT052H.grib2 2026-04-27 20:55 531K
20260427T18Z_MSC_RDPS_WindU_AGL-80m_RLatLon0.09_PT052H.grib2 2026-04-27 20:55 414K
20260427T18Z_MSC_RDPS_WindU_IsbL-0001_RLatLon0.09_PT052H.grib2 2026-04-27 20:55 245K
20260427T18Z_MSC_RDPS_WindU_IsbL-0005_RLatLon0.09_PT052H.grib2 2026-04-27 20:55 290K
20260427T18Z_MSC_RDPS_WindU_IsbL-0010_RLatLon0.09_PT052H.grib2 2026-04-27 20:55 341K
20260427T18Z_MSC_RDPS_WindU_IsbL-0020_RLatLon0.09_PT052H.grib2 2026-04-27 20:55 354K
20260427T18Z_MSC_RDPS_WindU_IsbL-0030_RLatLon0.09_PT052H.grib2 2026-04-27 20:55 353K
20260427T18Z_MSC_RDPS_WindU_IsbL-0050_RLatLon0.09_PT052H.grib2 2026-04-27 20:55 344K
20260427T18Z_MSC_RDPS_WindU_IsbL-0100_RLatLon0.09_PT052H.grib2 2026-04-27 20:55 441K
20260427T18Z_MSC_RDPS_WindU_IsbL-0150_RLatLon0.09_PT052H.grib2 2026-04-27 20:55 404K
20260427T18Z_MSC_RDPS_WindU_IsbL-0175_RLatLon0.09_PT052H.grib2 2026-04-27 20:55 428K
20260427T18Z_MSC_RDPS_WindU_IsbL-0200_RLatLon0.09_PT052H.grib2 2026-04-27 20:55 446K
20260427T18Z_MSC_RDPS_WindU_IsbL-0225_RLatLon0.09_PT052H.grib2 2026-04-27 20:55 451K
20260427T18Z_MSC_RDPS_WindU_IsbL-0250_RLatLon0.09_PT052H.grib2 2026-04-27 20:55 353K
20260427T18Z_MSC_RDPS_WindU_IsbL-0275_RLatLon0.09_PT052H.grib2 2026-04-27 20:55 368K
20260427T18Z_MSC_RDPS_WindU_IsbL-0300_RLatLon0.09_PT052H.grib2 2026-04-27 20:55 362K
20260427T18Z_MSC_RDPS_WindU_IsbL-0350_RLatLon0.09_PT052H.grib2 2026-04-27 20:55 474K
20260427T18Z_MSC_RDPS_WindU_IsbL-0400_RLatLon0.09_PT052H.grib2 2026-04-27 20:55 473K
20260427T18Z_MSC_RDPS_WindU_IsbL-0450_RLatLon0.09_PT052H.grib2 2026-04-27 20:55 471K
20260427T18Z_MSC_RDPS_WindU_IsbL-0500_RLatLon0.09_PT052H.grib2 2026-04-27 20:55 475K
20260427T18Z_MSC_RDPS_WindU_IsbL-0550_RLatLon0.09_PT052H.grib2 2026-04-27 20:55 460K
20260427T18Z_MSC_RDPS_WindU_IsbL-0600_RLatLon0.09_PT052H.grib2 2026-04-27 20:55 470K
20260427T18Z_MSC_RDPS_WindU_IsbL-0650_RLatLon0.09_PT052H.grib2 2026-04-27 20:55 487K
20260427T18Z_MSC_RDPS_WindU_IsbL-0700_RLatLon0.09_PT052H.grib2 2026-04-27 20:55 509K
20260427T18Z_MSC_RDPS_WindU_IsbL-0750_RLatLon0.09_PT052H.grib2 2026-04-27 20:55 536K
20260427T18Z_MSC_RDPS_WindU_IsbL-0800_RLatLon0.09_PT052H.grib2 2026-04-27 20:55 572K
20260427T18Z_MSC_RDPS_WindU_IsbL-0850_RLatLon0.09_PT052H.grib2 2026-04-27 20:55 617K
20260427T18Z_MSC_RDPS_WindU_IsbL-0875_RLatLon0.09_PT052H.grib2 2026-04-27 20:55 633K
20260427T18Z_MSC_RDPS_WindU_IsbL-0900_RLatLon0.09_PT052H.grib2 2026-04-27 20:55 645K
20260427T18Z_MSC_RDPS_WindU_IsbL-0925_RLatLon0.09_PT052H.grib2 2026-04-27 20:55 652K
20260427T18Z_MSC_RDPS_WindU_IsbL-0950_RLatLon0.09_PT052H.grib2 2026-04-27 20:55 648K
20260427T18Z_MSC_RDPS_WindU_IsbL-0970_RLatLon0.09_PT052H.grib2 2026-04-27 20:55 647K
20260427T18Z_MSC_RDPS_WindU_IsbL-0985_RLatLon0.09_PT052H.grib2 2026-04-27 20:55 785K
20260427T18Z_MSC_RDPS_WindU_IsbL-1000_RLatLon0.09_PT052H.grib2 2026-04-27 20:55 781K
20260427T18Z_MSC_RDPS_WindU_IsbL-1015_RLatLon0.09_PT052H.grib2 2026-04-27 20:55 774K
20260427T18Z_MSC_RDPS_WindV_AGL-10m_RLatLon0.09_PT052H.grib2 2026-04-27 20:55 431K
20260427T18Z_MSC_RDPS_WindV_AGL-120m_RLatLon0.09_PT052H.grib2 2026-04-27 20:55 528K
20260427T18Z_MSC_RDPS_WindV_AGL-40m_RLatLon0.09_PT052H.grib2 2026-04-27 20:55 530K
20260427T18Z_MSC_RDPS_WindV_AGL-80m_RLatLon0.09_PT052H.grib2 2026-04-27 20:55 528K
20260427T18Z_MSC_RDPS_WindV_IsbL-0001_RLatLon0.09_PT052H.grib2 2026-04-27 20:55 247K
20260427T18Z_MSC_RDPS_WindV_IsbL-0005_RLatLon0.09_PT052H.grib2 2026-04-27 20:55 288K
20260427T18Z_MSC_RDPS_WindV_IsbL-0010_RLatLon0.09_PT052H.grib2 2026-04-27 20:55 302K
20260427T18Z_MSC_RDPS_WindV_IsbL-0020_RLatLon0.09_PT052H.grib2 2026-04-27 20:55 318K
20260427T18Z_MSC_RDPS_WindV_IsbL-0030_RLatLon0.09_PT052H.grib2 2026-04-27 20:55 356K
20260427T18Z_MSC_RDPS_WindV_IsbL-0050_RLatLon0.09_PT052H.grib2 2026-04-27 20:55 344K
20260427T18Z_MSC_RDPS_WindV_IsbL-0100_RLatLon0.09_PT052H.grib2 2026-04-27 20:55 339K
20260427T18Z_MSC_RDPS_WindV_IsbL-0150_RLatLon0.09_PT052H.grib2 2026-04-27 20:55 402K
20260427T18Z_MSC_RDPS_WindV_IsbL-0175_RLatLon0.09_PT052H.grib2 2026-04-27 20:55 428K
20260427T18Z_MSC_RDPS_WindV_IsbL-0200_RLatLon0.09_PT052H.grib2 2026-04-27 20:55 344K
20260427T18Z_MSC_RDPS_WindV_IsbL-0225_RLatLon0.09_PT052H.grib2 2026-04-27 20:55 347K
20260427T18Z_MSC_RDPS_WindV_IsbL-0250_RLatLon0.09_PT052H.grib2 2026-04-27 20:55 375K
20260427T18Z_MSC_RDPS_WindV_IsbL-0275_RLatLon0.09_PT052H.grib2 2026-04-27 20:55 388K
20260427T18Z_MSC_RDPS_WindV_IsbL-0300_RLatLon0.09_PT052H.grib2 2026-04-27 20:55 384K
20260427T18Z_MSC_RDPS_WindV_IsbL-0350_RLatLon0.09_PT052H.grib2 2026-04-27 20:55 368K
20260427T18Z_MSC_RDPS_WindV_IsbL-0400_RLatLon0.09_PT052H.grib2 2026-04-27 20:55 368K
20260427T18Z_MSC_RDPS_WindV_IsbL-0450_RLatLon0.09_PT052H.grib2 2026-04-27 20:55 471K
20260427T18Z_MSC_RDPS_WindV_IsbL-0500_RLatLon0.09_PT052H.grib2 2026-04-27 20:55 472K
20260427T18Z_MSC_RDPS_WindV_IsbL-0550_RLatLon0.09_PT052H.grib2 2026-04-27 20:55 475K
20260427T18Z_MSC_RDPS_WindV_IsbL-0600_RLatLon0.09_PT052H.grib2 2026-04-27 20:55 485K
20260427T18Z_MSC_RDPS_WindV_IsbL-0650_RLatLon0.09_PT052H.grib2 2026-04-27 20:55 501K
20260427T18Z_MSC_RDPS_WindV_IsbL-0700_RLatLon0.09_PT052H.grib2 2026-04-27 20:55 505K
20260427T18Z_MSC_RDPS_WindV_IsbL-0750_RLatLon0.09_PT052H.grib2 2026-04-27 20:55 531K
20260427T18Z_MSC_RDPS_WindV_IsbL-0800_RLatLon0.09_PT052H.grib2 2026-04-27 20:55 566K
20260427T18Z_MSC_RDPS_WindV_IsbL-0850_RLatLon0.09_PT052H.grib2 2026-04-27 20:55 612K
20260427T18Z_MSC_RDPS_WindV_IsbL-0875_RLatLon0.09_PT052H.grib2 2026-04-27 20:55 629K
20260427T18Z_MSC_RDPS_WindV_IsbL-0900_RLatLon0.09_PT052H.grib2 2026-04-27 20:55 642K
20260427T18Z_MSC_RDPS_WindV_IsbL-0925_RLatLon0.09_PT052H.grib2 2026-04-27 20:55 789K
20260427T18Z_MSC_RDPS_WindV_IsbL-0950_RLatLon0.09_PT052H.grib2 2026-04-27 20:55 787K
20260427T18Z_MSC_RDPS_WindV_IsbL-0970_RLatLon0.09_PT052H.grib2 2026-04-27 20:55 789K
20260427T18Z_MSC_RDPS_WindV_IsbL-0985_RLatLon0.09_PT052H.grib2 2026-04-27 20:55 786K
20260427T18Z_MSC_RDPS_WindV_IsbL-1000_RLatLon0.09_PT052H.grib2 2026-04-27 20:55 782K
20260427T18Z_MSC_RDPS_WindV_IsbL-1015_RLatLon0.09_PT052H.grib2 2026-04-27 20:55 821K